Regional Weather Roundup
Issued by NWS Charleston, SC

Current Version | Previous Version | Graphics & Text | Print | Product List | Glossary On
Versions: 1 2 3 4 5 6 7 8 9 10 11 12 13 14 15 16 17 18 19 20 21 22 23 24 25 26 27 28 29 30 31 32 33 34 35 36 37 38 39 40 41 42 43 44 45 46 47 48 49 50
056
ASUS42 KCHS 222327
RWRCHS

REGIONAL WEATHER ROUNDUP
NATIONAL WEATHER SERVICE CHARLESTON SC
700 PM EDT THU JUN 22 2017

NOTE: "FAIR" INDICATES FEW OR NO CLOUDS BELOW 12,000 FEET WITH NO
SIGNIFICANT WEATHER AND/OR OBSTRUCTIONS TO VISIBILITY.

NOT ALL STATIONS ARE QUALITY CONTROLLED. USE DATA WITH CAUTION...
ESPECIALLY DEWPOINT OBSERVATIONS.

SCZ027-030-031-034>040-042>050-230000-
...SOUTHEAST SOUTH CAROLINA...

CITY           SKY/WX    TMP DP  RH WIND       PRES   REMARKS
N CHARLESTON   CLOUDY    82  76  81 CALM      30.07S
WATERFRONT PRK   N/A     82  78  88 S8        30.05R HX  91
JOHNS ISLAND   MOCLDY    82  79  89 S8        30.07S HX  93
PINOPOLIS      NOT AVBL
MONCKS CORNER  RAIN      72  70  94 CALM      30.08S
SUMMERVILLE    MOCLDY    73  72  94 CALM      30.08F
BEAUFORT MCAS  CLOUDY    84  80  88 S5        30.05S HX  97
BEAUFORT ARPT  FAIR      82  77  83 S7        30.06R HAZE    HX  91
HILTON HEAD IS PTSUNNY   82  77  83 S8        30.06S HX  91
WALTERBORO     CLOUDY    81  79  94 E6        30.07S
ALLENDALE      FAIR      82  77  83 SE5       30.04R HX  91

...SOUTHERN MIDLANDS AND PEE DEE...

CITY           SKY/WX    TMP DP  RH WIND       PRES   REMARKS
GEORGETOWN     LGT RAIN  77  75  94 CALM      30.08S
KINGSTREE      MOCLDY    77  72  83 SE6       30.08R
ORANGEBURG     MOSUNNY   83  77  82 E6        30.05S HX  92
BARNWELL       FAIR      86  79  79 SE7       30.04S HX  99
AIKEN          FAIR      82  73  74 SE6       30.08S
MANNING        MOCLDY    77  73  88 S5G18     30.09R
COLUMBIA       CLOUDY    84  73  69 E9        30.04R HX  90
SUMTER         CLOUDY    83  73  72 E5        30.05R
FLORENCE       CLOUDY    83  75  77 E7        30.07S HX  90
MYRTLE BEACH   NOT AVBL
N MYRTLE BEACH CLOUDY    80  77  90 S7        30.07S

$$

GAZ063-065-086>088-099>101-113>116-118-119-134>141-150-230000-
...SOUTHEAST GEORGIA...

CITY           SKY/WX    TMP DP  RH WIND       PRES   REMARKS
SAVANNAH ARPT  CLOUDY    86  74  67 SE9       30.05R HX  94
HUNTER AAF     CLOUDY    84  77  78 S7        30.03R HX  94
FORT STEWART   MOSUNNY   85  75  71 SE9       30.02S HX  94
STATESBORO     MOSUNNY   85  75  71 SE7       30.04R HX  94
SYLVANIA       PTCLDY    85  80  84 SE6       30.05R HX 100
CLAXTON        FAIR     N/A N/A N/A E3        30.04R

...CSRA...CENTRAL AND FAR SOUTHEAST GEORGIA...

CITY           SKY/WX    TMP DP  RH WIND       PRES   REMARKS
THOMSON        PTSUNNY   84  74  71 CALM      30.07F HX  92
AUGUSTA-BUSH   PTSUNNY   89  76  65 SE8       30.01S HX 100
AUGUSTA-DANIEL PTSUNNY   89  72  56 SE6       30.03S HX  96
SWAINSBORO     FAIR      88  75  66 S5        30.03S HX  97
VIDALIA        MOSUNNY   88  77  70 SE5       30.04R HX 100
EASTMAN        FAIR      89  64  42 S5        30.04R HX  90
HAZLEHURST     FAIR      89  76  65 SE3       30.02R HX 100
ALMA           MOSUNNY   88  74  63 SE6       30.02S HX  96
WAYCROSS       NOT AVBL
JESUP          RAIN      77  72  83 S7        30.07R
BAXLEY         FAIR      82  82 100 E9G22     30.04R HX  97
BRUNSWICK      CLOUDY    82  77  83 SE10      30.05S HX  91
SAINT SIMONS   CLOUDY    83  77  82 SE12      30.05R HX  92

$$

SCZ027-028-034-036>038-045-046-048>050-GAZ119-141-230000-
...LAKE AND SUPPLEMENTAL COASTAL OBSERVATIONS...

STATION/POSITION TIME  TEMP    WIND        PRES    WAVE   SWELL
                       AIR SEA DIR/SP/G            HT/PER HT/PER/DIR
                 (UTC) (F)     (DEG/KT/KT) (MB)    (FT/S) (FT/S/D)
WINYAH BAY       2245   79     180/  2     1018.0S
LAKE MURRAY      2250   81      CALM  /  6 1016.6F
ACE BASIN NERRS  2245   83        CALM     1018.0S
FORT PULASKI     2300   83 84  170/  8/ 13 1018.2
SAPELO ISLAND    2300   84     160/ 12     1018.0

$$

ANZ835-935-AMZ111-154-330-350-352-354-370-450-454-472-230000-
...C-MAN AND BUOY OBSERVATIONS...

STATION/POSITION TIME  TEMP    WIND        PRES    WAVE   SWELL
                       AIR SEA DIR/SP/G            HT/PER HT/PER/DIR
                 (UTC) (F)     (DEG/KT/KT) (MB)    (FT/S) (FT/S/D)
BUOY 41004       2310   81 81  190/ 10/ 12 1018.1
BUOY 41008       2250   81 81  150/ 14/ 16 1016.9S   3/ 8   2/110/ 8
FOLLY BEACH CMAN 2300   82     180/  9/ 11 1018.8F
CAPERS NEARSHORE 2308   85 83  200/ 12/ 16 1017.9F
FRIPP NEARSHORE  2308   82 83  180/ 10/ 14 1017.4R


STATION/POSITION TIME  TEMP    WIND        PRES    WAVE   SWELL
                       AIR SEA DIR/SP/G            HT/PER HT/PER/DIR
                 (UTC) (F)     (DEG/KT/KT) (MB)    (FT/S) (FT/S/D)
5E ST. MARYS GA  2300      81                N/A     3/ 8
FRYING PAN BUOY  2310   82 82  220/  6/  8 1018.4
BUOY 41025       2250   80 80  240/ 16/ 19 1017.3F   2/ 8   2/130/ 8
CAPE LOOKOUT NC  2300   80     260/ 11/ 12 1017.9S
BUOY 41002       2250   81 83  220/ 10/ 12 1019.6    4/ 8   5/100/ 8
BUOY 41010       2310   82 83  140/ 10/ 14 1018.5
ST AUGUSTINE FL  2300   79 79  150/ 14/ 15 1018.1R


$$




USA.gov is the U.S. government's official web portal to all federal, state and local government web resources and services.